Tracking 29495 objects as of 7-Sep-2024
HD Live streaming from Space Station
objects crossing your sky now

STARLINK-5437

Track STARLINK-5437 now!
10-day predictions
STARLINK-5437 is classified as:


NORAD ID: 54782
Int'l Code: 2022-175AA
Perigee: 399.0 km
Apogee: 403.1 km
Inclination: 53.2 °
Period: 92.4 minutes
Semi major axis: 6772 km
RCS: Unknown
Launch date: December 17, 2022
Source: United States (US)
Launch site: AIR FORCE EASTERN TEST RANGE (AFETR)
Your satellite tracking list
Your tracking list is empty




NASA's NSSDC Master Catalog

Two Line Element Set (TLE):
1 54782U 22175AA  24251.58334491  .00141294  00000-0  18376-2 0  9992
2 54782  53.2124 228.8069 0003043  72.0533  51.2829 15.57827864 96656
Source of the keplerian elements: AFSPC